User: anonymous   Login
Location: Mentone
(34.5413°N, 85.5351°W)
Time: 07:50:02
(UTC-05:00)
Language:

A-11 Canister half - Orbit

View from above orbital plane
View from above orbital plane
View from above satellite
View from above satellite

Ground track
Ground track

The orbit data is extracted from the following two-line orbital elements,

1 00053U 60009E   16205.17788986 -.00000084  00000-0  00000+0 0  9993
2 00053  47.2782 334.0703 0099583 189.2879 170.6068 12.17189609494962
Epoch (UTC): 23 July 2016 04:16:09
Eccentricity: 0.0099583
inclination: 47.2782°
perigee height: 1525 km
apogee height: 1684 km
right ascension of ascending node: 334.0703°
argument of perigee: 189.2879°
revolutions per day: 12.17189609
mean anomaly at epoch: 170.6068°
orbit number at epoch: 49496

The dashed part of the orbit path shows where the satellite is in the earth's shadow,  

DLR